Palacios, TX

11:43 PM CDT on March 23, 2017 (GMT -0500)
Palacios Municipal

Weather History for KPSX - September, 2012

Change the Weather History Date:

Wednesday, September 12, 2012

  Actual Average Record
Temperature  
Mean Temperature 84 °F -  
Max Temperature 90 °F 88 °F 97 °F (2004)
Min Temperature 77 °F 73 °F 58 °F (1959)
Cooling Degree Days 18    
Growing Degree Days 34 (Base 50)    
Moisture  
Dew Point 74 °F    
Average Humidity 76    
Maximum Humidity 90    
Minimum Humidity 59    
Precipitation  
Precipitation 0.02 in - - ()
Sea Level Pressure  
Sea Level Pressure 30.00 in    
Wind  
Wind Speed 5 mph (SSE)    
Max Wind Speed 15 mph    
Max Gust Speed 24 mph    
Visibility 10 miles    
Events Thunderstorm    
Averages and records for this station are not official NWS values.
T = Trace of Precipitation, MM = Missing Value Source: NWS Daily Summary

Daily Weather History Graph

Daily Weather History Graph

Search for Another Location

Airport or City:

Trip Planner

Search our weather history database for the weather conditions in past years. The results will help you decide how hot, cold, wet, or windy it might be!

Date:

Astronomy

Sep. 12, 2012 Rise Set
Actual Time 7:08 AM CDT 7:32 PM CDT
Civil Twilight 6:45 AM CDT 7:56 PM CDT
Nautical Twilight 6:17 AM CDT 8:24 PM CDT
Astronomical Twilight 5:49 AM CDT 8:52 PM CDT
Moon 3:40 AM CDT (9/12) 5:10 PM CDT (9/12)
Length of Visible Light 13h 11m
Length of Day
12h 24m
Waning Crescent, 13% of the Moon is Illuminated
Sep 12
Waning Crescent
Sep 15
New
Sep 22
First Quarter
Sep 29
Full
Oct 8
Last Quarter

Hourly Weather History & Observations

Time (CDT) Temp. Heat Index Dew Point Humidity Pressure Visibility Wind Dir Wind Speed Gust Speed Precip Events Conditions
12:53 AM 79.0 °F - 73.9 °F 84% 29.99 in 10.0 mi ENE 3.5 mph - N/A   Partly Cloudy
1:53 AM 79.0 °F - 75.0 °F 88% 29.99 in 10.0 mi Calm Calm - N/A   Partly Cloudy
2:18 AM 78.8 °F - 75.2 °F 89% 29.99 in 10.0 mi East 3.5 mph - N/A   Mostly Cloudy
2:27 AM 78.8 °F - 75.2 °F 89% 29.98 in 10.0 mi East 4.6 mph - N/A   Scattered Clouds
2:53 AM 80.1 °F 85.1 °F 75.0 °F 85% 29.98 in 10.0 mi East 3.5 mph - N/A   Mostly Cloudy
3:53 AM 79.0 °F - 73.9 °F 84% 29.96 in 10.0 mi Calm Calm - N/A   Scattered Clouds
4:28 AM 78.8 °F - 75.2 °F 89% 29.96 in 10.0 mi Calm Calm - N/A   Mostly Cloudy
4:44 AM 78.8 °F - 75.2 °F 89% 29.96 in 10.0 mi Calm Calm - N/A   Scattered Clouds
4:53 AM 77.0 °F - 73.9 °F 90% 29.96 in 10.0 mi Calm Calm - N/A   Scattered Clouds
5:53 AM 77.0 °F - 73.0 °F 88% 29.98 in 10.0 mi Calm Calm - N/A   Clear
6:53 AM 79.0 °F - 73.9 °F 84% 29.99 in 10.0 mi Calm Calm - 0.00 in   Scattered Clouds
7:35 AM 80.6 °F 84.6 °F 71.6 °F 74% 30.01 in 10.0 mi South 8.1 mph - N/A Thunderstorm Scattered Clouds
7:53 AM 82.0 °F 86.3 °F 71.1 °F 69% 30.02 in 10.0 mi South 11.5 mph - N/A Thunderstorm Thunderstorm
8:22 AM 80.6 °F 85.4 °F 73.4 °F 79% 30.02 in 10.0 mi South 8.1 mph - N/A   Scattered Clouds
8:53 AM 82.0 °F 87.9 °F 73.9 °F 76% 30.03 in 10.0 mi South 4.6 mph - N/A   Clear
9:53 AM 86.0 °F 91.5 °F 71.1 °F 61% 30.04 in 10.0 mi SSE 9.2 mph - N/A   Clear
10:53 AM 89.1 °F 97.0 °F 73.0 °F 59% 30.05 in 10.0 mi SSW 6.9 mph - N/A   Scattered Clouds
11:15 AM 84.2 °F 90.9 °F 73.4 °F 70% 30.06 in 7.0 mi SSW 15.0 mph 24.2 mph N/A Thunderstorm Thunderstorm
11:37 AM 80.6 °F 85.4 °F 73.4 °F 79% 30.05 in 10.0 mi South 11.5 mph - 0.02 in Thunderstorm Mostly Cloudy
11:53 AM 84.0 °F 90.2 °F 73.0 °F 69% 30.04 in 10.0 mi South 10.4 mph - 0.02 in   Mostly Cloudy
12:53 PM 86.0 °F 95.1 °F 75.0 °F 70% 30.05 in 10.0 mi SSE 10.4 mph - N/A   Scattered Clouds
1:44 PM 89.6 °F 98.2 °F 73.4 °F 59% 30.02 in 10.0 mi SSE 11.5 mph - N/A Thunderstorm Partly Cloudy
1:53 PM 90.0 °F 100.2 °F 75.0 °F 61% 30.01 in 10.0 mi South 10.4 mph - N/A   Mostly Cloudy
2:53 PM 89.1 °F 101.4 °F 77.0 °F 67% 30.00 in 10.0 mi SE 11.5 mph - N/A Thunderstorm Clear
3:12 PM 89.6 °F 99.8 °F 75.2 °F 62% 29.99 in 10.0 mi SSE 8.1 mph - N/A   Clear
3:53 PM 87.1 °F 94.5 °F 73.0 °F 63% 29.99 in 10.0 mi South 12.7 mph - N/A   Partly Cloudy
4:53 PM 89.1 °F 101.4 °F 77.0 °F 67% 29.96 in 10.0 mi SSE 13.8 mph - N/A   Clear
5:53 PM 88.0 °F 98.5 °F 75.9 °F 67% 29.95 in 10.0 mi South 10.4 mph - N/A   Clear
7:53 PM 82.9 °F 90.8 °F 75.9 °F 79% 29.97 in 10.0 mi SE 6.9 mph - N/A   Clear
8:53 PM 82.9 °F 91.8 °F 77.0 °F 82% 29.98 in 10.0 mi SE 8.1 mph - N/A   Clear
9:53 PM 82.9 °F 90.8 °F 75.9 °F 79% 30.00 in 10.0 mi SE 8.1 mph - N/A   Clear
10:53 PM 82.9 °F 91.8 °F 77.0 °F 82% 30.00 in 10.0 mi SE 8.1 mph - N/A   Clear
11:53 PM 82.0 °F 90.2 °F 77.0 °F 85% 30.03 in 10.0 mi SE 5.8 mph - N/A   Clear